Flag for Canada Weather past 2 weeks in Windsor, Ontario, Canada

Now
84 °F

Passing clouds.


Feels Like: 87 °F
Forecast: 66 / 89 °F
Wind: 9 mph from Southwest

Location: Windsor Weather Station

Current Time: Jul 22, 2014 at 1:38:34 PM

Latest Report: Jul 22, 2014 at 12:00 PM


Visibility: 15 mi

Pressure: 30.05 "Hg

Humidity: 58%

Dew point: 68 °F

Location of WindsorLocation

Historic Weather in Windsor — Graph

°F

Windsor temperature yesterday

Maximum temperature yesterday: 84 °F (at 3:00 PM)
Minimum temperature yesterday: 59 °F (at 6:00 AM)
Average temperature yesterday: 73 °F

Past Weeks' High & Low Weather Summary

 TemperatureHumidityPressure
High84 °F (Jul 7, 1:00 PM)100% (Jul 20, 1:00 AM)30.25 "Hg (Jul 20, 1:00 AM)
Low55 °F (Jul 16, 6:00 AM)36% (Jul 17, 3:00 PM)29.56 "Hg (Jul 8, 11:00 AM)
Average70 °F71%29.98 "Hg
* Reported Jul 7 12:00 Noon — Jul 22 12:00 Noon, Windsor, Weather by CustomWeather, © 2014

Note: Actual official high and low records may vary slightly from our data, if they occured in-between our weather recording intervals... More about our weather records

Advertising

Windsor weather history for previous 24 hours

 ConditionsComfort  
Time TempWeatherWind HumidityBarometerVisibility
12:00 PM
Jul 22
84 °FPassing clouds.9 mph58%30.05 "Hg15 mi
11:00 AM82 °FSunny.8 mph62%30.07 "Hg15 mi
10:00 AM77 °FSunny.6 mph69%30.09 "Hg15 mi
9:00 AM75 °FSunny.7 mph69%30.12 "Hg15 mi
8:00 AM68 °FSunny.No wind88%30.11 "Hg12 mi
7:00 AM64 °FClear.2 mph88%30.10 "Hg12 mi
6:00 AM63 °FClear.3 mph94%30.10 "Hg12 mi
5:00 AM64 °FClear.No wind88%30.10 "Hg15 mi
4:00 AM64 °FClear.2 mph88%30.09 "Hg15 mi
3:00 AM64 °FClear.3 mph88%30.09 "Hg15 mi
2:00 AM64 °FClear.3 mph88%30.09 "Hg15 mi
1:00 AM66 °FClear.2 mph78%30.11 "Hg15 mi
12:00 AM68 °FClear.3 mph73%30.11 "Hg15 mi
11:00 PM
Jul 21
70 °FClear.3 mph69%30.11 "Hg15 mi
10:00 PM70 °FPassing clouds.7 mph73%30.11 "Hg15 mi
9:00 PM73 °FScattered clouds.7 mph61%30.11 "Hg15 mi
8:00 PM79 °FScattered clouds.9 mph51%30.10 "Hg15 mi
7:00 PM82 °FPartly sunny.7 mph42%30.10 "Hg15 mi
6:00 PM82 °FScattered clouds.8 mph42%30.10 "Hg15 mi
5:00 PM84 °FScattered clouds.8 mph40%30.10 "Hg15 mi
4:00 PM84 °FPassing clouds.10 mph43%30.11 "Hg15 mi
3:00 PM84 °FPartly sunny.10 mph45%30.12 "Hg15 mi
2:00 PM82 °FScattered clouds.8 mph48%30.13 "Hg15 mi
1:00 PM82 °FScattered clouds.7 mph48%30.13 "Hg15 mi
Weather by CustomWeather, © 2014

See weather overviewHow to use our weather pages